"startDT [UTC]","vpos","CH4 [ppm]","stdev(CH4) [ppm]","CO2 [ppm]","stdev(CO2) [ppm]","H2O [ppm]","stdev(H2O)","p_LGR [torr]","T_LGR [C]","mt1_LGR [us]","mt2_LGR [us]","T_ECpre [C]","T_EC1 [C]","T_EC2 [C]","p_inlet [hPa]","p_in [hPa]","p_out [hPa]","T_inlet [C]","RH_inlet [%]","dwpt_inlet [C]","T_vent [C]","RH_vent [%]","dwpt_vent [C]","flow_vent [l min-1]","flow_inlet [l min-1]","dwpt_sample [C]","T_room [C]"
2012-04-29 00:00:00,0.0,1.9040,0.0009,403.33,0.32,88.5,43.4,138.15,27.13,24.60,36.30,0.04,-272.74,-272.74,-51,551,-936,21.5,4.3,-21.5,21.3,4.5,-21.0,5.73,2.34,-26.6,26.1
2012-04-29 00:01:00,0.0,1.9041,0.0009,403.46,0.27,92.3,34.3,138.15,27.13,24.60,36.30,0.04,-272.73,-272.74,-52,551,-936,21.5,4.3,-21.3,21.3,4.6,-20.9,5.73,2.44,-26.7,26.1
2012-04-29 00:02:00,0.0,1.9044,0.0009,403.65,0.22,81.7,38.7,138.15,27.13,24.60,36.29,0.04,-272.74,-272.74,-51,551,-936,21.5,4.4,-21.3,21.3,4.6,-20.9,5.73,2.43,-26.7,26.1
2012-04-29 00:03:00,0.0,1.9044,0.0009,403.51,0.29,92.0,37.4,138.15,27.13,24.60,36.29,0.04,-272.73,-272.73,-52,551,-936,21.5,4.3,-21.4,21.3,4.5,-21.0,5.73,2.35,-26.6,26.1
2012-04-29 00:04:00,0.0,1.9044,0.0008,403.48,0.30,86.6,39.6,138.15,27.13,24.60,36.29,0.04,-272.73,-272.74,-51,551,-936,21.5,4.3,-21.4,21.3,4.5,-21.0,5.73,2.50,-26.7,26.1
2012-04-29 00:05:00,0.0,1.9043,0.0010,403.32,0.26,83.1,35.7,138.15,27.13,24.59,36.30,0.04,-272.74,-272.74,-52,551,-936,21.5,4.3,-21.5,21.3,4.5,-21.0,5.73,2.31,-26.7,26.3
2012-04-29 00:06:00,0.0,1.9040,0.0009,403.44,0.30,85.7,35.3,138.15,27.13,24.60,36.30,0.04,-272.73,-272.74,-51,552,-936,21.5,4.3,-21.4,21.3,4.5,-21.0,5.73,2.52,-26.5,26.3
2012-04-29 00:07:00,0.0,1.9046,0.0011,403.45,0.25,82.1,37.8,138.15,27.12,24.59,36.30,0.04,-272.73,-272.74,-52,551,-936,21.5,4.3,-21.3,21.3,4.6,-20.9,5.73,2.33,-26.7,26.2
2012-04-29 00:08:00,0.0,1.9043,0.0008,403.48,0.29,81.9,37.8,138.15,27.13,24.59,36.29,0.04,-272.73,-272.74,-51,551,-936,21.5,4.4,-21.2,21.3,4.6,-20.8,5.73,2.46,-26.6,26.2
2012-04-29 00:09:00,0.0,1.9047,0.0010,403.61,0.30,91.4,42.1,138.15,27.13,24.60,36.29,0.04,-272.73,-272.74,-52,551,-936,21.5,4.4,-21.2,21.3,4.6,-20.8,5.73,2.40,-26.5,26.2
2012-04-29 00:10:00,0.0,1.9044,0.0009,403.53,0.29,95.8,36.4,138.15,27.13,24.60,36.30,0.04,-272.73,-272.73,-51,551,-936,21.5,4.3,-21.4,21.3,4.5,-21.0,5.73,2.37,-26.6,26.1
2012-04-29 00:11:00,0.0,1.9046,0.0011,403.64,0.27,91.4,36.9,138.15,27.13,24.59,36.29,0.04,-272.74,-272.74,-52,551,-936,21.5,4.3,-21.4,21.3,4.5,-20.9,5.73,2.49,-26.6,26.2
2012-04-29 00:12:00,0.0,1.9046,0.0009,403.53,0.26,86.2,34.5,138.15,27.13,24.60,36.29,0.04,-272.74,-272.73,-51,551,-935,21.6,4.3,-21.4,21.3,4.5,-21.0,5.73,2.31,-26.7,26.2
2012-04-29 00:13:00,0.0,1.9045,0.0008,403.52,0.29,89.7,36.0,138.15,27.12,24.60,36.29,0.04,-272.74,-272.74,-52,552,-936,21.5,4.3,-21.4,21.3,4.5,-21.0,5.73,2.52,-26.6,26.2
2012-04-29 00:14:00,0.0,1.9045,0.0011,403.47,0.32,91.4,36.6,138.15,27.12,24.60,36.30,0.04,-272.74,-272.74,-52,551,-936,21.5,4.3,-21.3,21.3,4.6,-20.9,5.73,2.32,-26.6,26.2
2012-04-29 00:15:00,0.0,1.9047,0.0010,403.50,0.24,95.4,31.2,138.15,27.12,24.60,36.29,0.04,-272.74,-272.74,-52,552,-936,21.6,4.3,-21.4,21.3,4.5,-21.0,5.73,2.47,-26.7,26.3
2012-04-29 00:16:00,0.0,1.9044,0.0010,403.45,0.26,86.4,31.5,138.15,27.12,24.59,36.29,0.04,-272.73,-272.73,-52,551,-936,21.6,4.3,-21.4,21.3,4.6,-20.9,5.73,2.40,-26.7,26.1
2012-04-29 00:17:00,0.0,1.9042,0.0010,403.34,0.27,90.9,37.6,138.15,27.12,24.60,36.30,0.04,-272.73,-272.74,-52,551,-936,21.6,4.4,-21.2,21.3,4.6,-20.8,5.73,2.38,-26.7,26.0
2012-04-29 00:18:00,0.0,1.9048,0.0010,403.43,0.26,78.2,37.8,138.15,27.12,24.59,36.30,0.04,-272.74,-272.74,-52,551,-936,21.6,4.4,-21.2,21.3,4.6,-20.8,5.73,2.48,-26.7,26.1
2012-04-29 00:19:00,0.0,1.9047,0.0010,403.48,0.28,81.7,37.8,138.15,27.12,24.60,36.30,0.04,-272.73,-272.73,-52,552,-936,21.6,4.4,-21.2,21.3,4.6,-20.8,5.73,2.31,-26.6,26.2
2012-04-29 00:20:00,0.0,1.9045,0.0008,403.42,0.28,91.6,34.2,138.15,27.12,24.60,36.30,0.04,-272.74,-272.74,-52,551,-936,21.6,4.4,-21.2,21.3,4.6,-20.8,5.73,2.52,-26.6,26.3
2012-04-29 00:21:00,0.0,1.9052,0.0010,403.45,0.26,83.9,34.7,138.15,27.12,24.59,36.29,0.04,-272.74,-272.74,-52,551,-936,21.6,4.4,-21.2,21.3,4.6,-20.8,5.73,2.31,-26.6,26.4
2012-04-29 00:22:00,0.0,1.9054,0.0009,403.51,0.28,89.2,41.1,138.15,27.12,24.59,36.29,0.04,-272.74,-272.74,-52,552,-936,21.6,4.3,-21.4,21.3,4.5,-21.0,5.73,2.49,-26.6,26.2
2012-04-29 00:23:00,0.0,1.9051,0.0009,403.47,0.24,75.6,34.3,138.15,27.12,24.60,36.30,0.04,-272.74,-272.74,-52,552,-936,21.6,4.2,-21.5,21.3,4.5,-21.1,5.73,2.38,-26.6,26.3
2012-04-29 00:24:00,0.0,1.9049,0.0010,403.44,0.25,88.9,38.9,138.15,27.12,24.60,36.29,0.04,-272.74,-272.74,-52,552,-936,21.6,4.2,-21.6,21.3,4.5,-21.1,5.73,2.40,-26.6,26.3
2012-04-29 00:25:00,0.0,1.9051,0.0011,403.47,0.36,90.2,30.9,138.15,27.12,24.60,36.29,0.04,-272.74,-272.74,-52,552,-936,21.6,4.3,-21.4,21.3,4.5,-21.0,5.73,2.47,-26.6,26.3
2012-04-29 00:26:00,0.0,1.9048,0.0008,403.34,0.30,94.8,28.2,138.15,27.12,24.60,36.30,0.04,-272.73,-272.73,-52,552,-936,21.6,4.3,-21.4,21.3,4.5,-21.0,5.73,2.32,-26.6,26.2
2012-04-29 00:27:00,0.0,1.9050,0.0009,403.40,0.23,76.6,35.2,138.15,27.12,24.59,36.29,0.04,-272.73,-272.73,-51,552,-936,21.6,4.3,-21.3,21.3,4.6,-20.9,5.73,2.52,-26.6,26.2
2012-04-29 00:28:00,0.0,1.9050,0.0010,403.49,0.26,86.7,38.8,138.15,27.12,24.59,36.29,0.04,-272.74,-272.74,-52,551,-936,21.6,4.3,-21.3,21.3,4.6,-20.9,5.73,2.31,-26.6,26.3
2012-04-29 00:29:00,0.0,1.9043,0.0009,403.47,0.32,92.3,32.1,138.15,27.12,24.60,36.29,0.04,-272.74,-272.74,-51,552,-936,21.6,4.3,-21.3,21.3,4.6,-20.9,5.73,2.48,-26.6,26.3
2012-04-29 00:30:00,0.0,1.9048,0.0010,403.37,0.26,87.6,36.4,138.15,27.12,24.60,36.29,0.04,-272.74,-272.73,-52,551,-936,21.6,4.4,-21.2,21.3,4.6,-20.8,5.73,2.38,-26.6,26.4
2012-04-29 00:31:00,0.0,1.9054,0.0009,403.47,0.28,96.9,33.1,138.15,27.12,24.60,36.30,0.04,-272.74,-272.74,-51,552,-936,21.6,4.3,-21.3,21.3,4.6,-20.9,5.73,2.41,-26.6,26.3
2012-04-29 00:32:00,0.0,1.9052,0.0009,403.60,0.27,90.9,35.3,138.15,27.12,24.60,36.29,0.04,-272.73,-272.74,-52,551,-936,21.6,4.3,-21.5,21.3,4.5,-21.1,5.73,2.46,-26.6,26.4
2012-04-29 00:33:00,0.0,1.9051,0.0009,403.56,0.27,95.5,39.3,138.15,27.12,24.60,36.29,0.04,-272.73,-272.74,-51,552,-936,21.6,4.3,-21.5,21.3,4.5,-21.1,5.73,2.33,-26.6,26.4
2012-04-29 00:34:00,0.0,1.9051,0.0008,403.51,0.27,94.1,35.5,138.15,27.12,24.60,36.30,0.04,-272.74,-272.74,-52,552,-936,21.6,4.3,-21.4,21.3,4.5,-21.1,5.73,2.51,-26.6,26.5
2012-04-29 00:35:00,0.0,1.9049,0.0010,403.49,0.35,85.5,38.7,138.15,27.12,24.59,36.29,0.04,-272.73,-272.74,-51,552,-936,21.6,4.3,-21.3,21.3,4.5,-20.9,5.73,2.31,-26.6,26.5
2012-04-29 00:36:00,0.0,1.9054,0.0008,403.53,0.24,94.4,30.8,138.15,27.12,24.60,36.29,0.04,-272.73,-272.73,-52,552,-936,21.6,4.3,-21.3,21.3,4.6,-20.9,5.73,2.50,-26.6,26.5
2012-04-29 00:37:00,0.0,1.9048,0.0010,403.45,0.27,83.3,33.7,138.15,27.12,24.60,36.29,0.04,-272.73,-272.74,-51,552,-936,21.6,4.4,-21.2,21.3,4.6,-20.8,5.73,2.36,-26.6,26.4
2012-04-29 00:38:00,0.0,1.9050,0.0008,403.37,0.29,90.7,40.0,138.15,27.12,24.59,36.29,0.04,-272.73,-272.74,-52,552,-936,21.6,4.4,-21.1,21.3,4.6,-20.8,5.73,2.42,-26.6,26.3
2012-04-29 00:39:00,0.0,1.9048,0.0010,403.57,0.31,98.4,38.1,138.15,27.12,24.60,36.28,0.04,-272.74,-272.74,-51,552,-936,21.6,4.4,-21.1,21.3,4.6,-20.7,5.73,2.45,-26.6,26.3
2012-04-29 00:40:00,0.0,1.9046,0.0010,403.44,0.26,84.3,33.6,138.15,27.12,24.60,36.29,0.04,-272.74,-272.72,-52,552,-936,21.6,4.4,-21.2,21.3,4.6,-20.7,5.73,2.33,-26.6,26.2
2012-04-29 00:41:00,0.0,1.9054,0.0010,403.48,0.27,94.9,39.6,138.15,27.12,24.59,36.30,0.04,-272.73,-272.73,-51,552,-936,21.6,4.4,-21.0,21.3,4.7,-20.7,5.73,2.51,-26.6,26.3
2012-04-29 00:42:00,0.0,1.9046,0.0011,403.39,0.30,94.3,31.7,138.15,27.12,24.60,36.29,0.04,-272.74,-272.74,-52,552,-936,21.6,4.4,-21.1,21.3,4.6,-20.7,5.73,2.30,-26.6,26.4
2012-04-29 00:43:00,0.0,1.9045,0.0009,403.38,0.26,90.8,39.6,138.15,27.12,24.60,36.29,0.04,-272.74,-272.74,-51,552,-936,21.6,4.5,-20.9,21.4,4.7,-20.5,5.73,2.50,-26.5,26.4
2012-04-29 00:44:00,0.0,1.9043,0.0010,403.42,0.28,97.4,39.8,138.15,27.12,24.60,36.29,0.04,-272.73,-272.74,-52,552,-936,21.6,4.5,-20.8,21.4,4.7,-20.5,5.73,2.35,-26.5,26.5
2012-04-29 00:45:00,0.0,1.9045,0.0009,403.48,0.28,98.4,35.7,138.15,27.12,24.60,36.29,0.04,-272.74,-272.73,-51,552,-936,21.6,4.5,-20.8,21.4,4.8,-20.4,5.73,2.43,-26.5,26.5
2012-04-29 00:46:00,0.0,1.9050,0.0010,403.48,0.30,100.5,42.8,138.15,27.12,24.59,36.29,0.04,-272.73,-272.74,-52,552,-936,21.6,4.5,-20.8,21.4,4.8,-20.4,5.73,2.43,-26.5,26.3
2012-04-29 00:47:00,0.0,1.9057,0.0009,403.78,0.33,93.6,39.3,138.15,27.12,24.60,36.29,0.04,-272.73,-272.74,-51,552,-936,21.6,4.4,-21.0,21.4,4.7,-20.6,5.73,2.35,-26.5,26.3
2012-04-29 00:48:00,0.0,1.9054,0.0009,403.48,0.31,84.6,34.3,138.15,27.12,24.60,36.30,0.04,-272.74,-272.74,-52,552,-936,21.6,4.3,-21.3,21.4,4.6,-20.9,5.73,2.51,-26.5,26.5
2012-04-29 00:49:00,0.0,1.9060,0.0010,403.56,0.24,98.3,35.4,138.15,27.12,24.60,36.29,0.04,-272.74,-272.73,-51,552,-936,21.6,4.3,-21.3,21.4,4.6,-20.9,5.73,2.30,-26.5,26.5
2012-04-29 00:50:00,0.0,1.9065,0.0008,403.70,0.24,103.2,35.0,138.15,27.12,24.60,36.29,0.04,-272.74,-272.73,-52,552,-936,21.6,4.3,-21.5,21.4,4.5,-21.0,5.73,2.50,-26.5,26.5
2012-04-29 00:51:00,0.0,1.9050,0.0009,403.46,0.27,93.6,36.3,138.15,27.12,24.60,36.30,0.04,-272.74,-272.74,-51,552,-936,21.6,4.3,-21.5,21.4,4.5,-21.1,5.73,2.35,-26.5,26.5
2012-04-29 00:52:00,0.0,1.9060,0.0009,403.65,0.30,94.3,36.8,138.15,27.12,24.60,36.29,0.04,-272.74,-272.73,-52,552,-936,21.6,4.3,-21.3,21.4,4.5,-20.9,5.73,2.43,-26.5,26.5
2012-04-29 00:53:00,0.0,1.9060,0.0009,403.78,0.37,96.7,36.2,138.15,27.12,24.60,36.30,0.04,-272.74,-272.74,-52,552,-936,21.6,4.3,-21.4,21.4,4.5,-20.9,5.73,2.44,-26.4,26.4
2012-04-29 00:54:00,0.0,1.9059,0.0009,403.71,0.34,98.8,40.8,138.15,27.12,24.60,36.30,0.04,-272.74,-272.74,-52,552,-936,21.6,4.3,-21.5,21.4,4.5,-21.1,5.73,2.34,-26.5,26.5
2012-04-29 00:55:00,0.0,1.9054,0.0009,403.54,0.26,96.5,28.8,138.15,27.12,24.60,36.30,0.04,-272.74,-272.74,-52,552,-936,21.6,4.3,-21.3,21.4,4.5,-20.9,5.73,2.51,-26.4,26.4
2012-04-29 00:56:00,0.0,1.9054,0.0009,403.64,0.30,97.3,39.4,138.15,27.12,24.60,36.30,0.04,-272.74,-272.73,-52,552,-936,21.6,4.4,-21.2,21.4,4.6,-20.8,5.73,2.30,-26.5,26.3
2012-04-29 00:57:00,0.0,1.9058,0.0009,403.65,0.31,96.9,38.7,138.15,27.12,24.60,36.30,0.04,-272.73,-272.73,-52,552,-936,21.6,4.4,-21.2,21.4,4.6,-20.8,5.73,2.51,-26.4,26.4
2012-04-29 00:58:00,0.0,1.9062,0.0012,403.68,0.31,104.1,36.8,138.15,27.12,24.60,36.30,0.04,-272.74,-272.74,-52,552,-936,21.6,4.3,-21.3,21.4,4.5,-20.9,5.73,2.34,-26.5,26.5
2012-04-29 00:59:00,0.0,1.9060,0.0010,403.65,0.26,93.2,33.5,138.15,27.12,24.59,36.29,0.04,-272.74,-272.74,-52,552,-936,21.6,4.3,-21.4,21.4,4.5,-21.0,5.73,2.44,-26.4,26.5
2012-04-29 01:00:00,0.0,1.9055,0.0009,403.59,0.34,101.6,34.5,138.15,27.12,24.60,36.30,0.04,-272.73,-272.74,-52,552,-936,21.6,4.3,-21.4,21.4,4.5,-21.0,5.73,2.43,-26.4,26.5
2012-04-29 01:01:00,0.0,1.9053,0.0009,403.41,0.26,99.0,38.7,138.15,27.12,24.60,36.30,0.04,-272.74,-272.73,-52,552,-936,21.7,4.4,-21.2,21.4,4.6,-20.8,5.73,2.35,-26.4,26.5
2012-04-29 01:02:00,0.0,1.9055,0.0012,403.56,0.26,101.8,37.8,138.15,27.12,24.60,36.30,0.04,-272.73,-272.74,-52,553,-936,21.6,4.4,-21.0,21.4,4.6,-20.6,5.73,2.50,-26.5,26.5
2012-04-29 01:03:00,0.0,1.9070,0.0008,403.84,0.22,101.4,37.6,138.15,27.12,24.60,36.30,0.04,-272.73,-272.74,-52,552,-936,21.7,4.4,-21.2,21.4,4.6,-20.8,5.73,2.31,-26.4,26.5
2012-04-29 01:04:00,0.0,1.9069,0.0010,403.95,0.32,107.9,34.1,138.15,27.12,24.60,36.29,0.04,-272.74,-272.74,-52,552,-936,21.6,4.2,-21.5,21.5,4.5,-21.1,5.73,2.51,-26.4,26.4
2012-04-29 01:05:00,0.0,1.9071,0.0010,403.83,0.30,102.1,37.2,138.15,27.13,24.60,36.30,0.04,-272.74,-272.73,-52,552,-936,21.7,4.2,-21.6,21.5,4.4,-21.2,5.73,2.35,-26.4,26.4
2012-04-29 01:06:00,0.0,1.9070,0.0010,403.92,0.25,104.1,33.4,138.15,27.13,24.60,36.29,0.04,-272.74,-272.73,-52,553,-936,21.7,4.2,-21.7,21.5,4.4,-21.3,5.73,2.43,-26.4,26.5
2012-04-29 01:07:00,0.0,1.9073,0.0011,403.75,0.27,102.3,38.9,138.15,27.13,24.60,36.30,0.04,-272.74,-272.74,-52,553,-936,21.7,4.1,-21.8,21.5,4.4,-21.3,5.73,2.44,-26.3,26.6
2012-04-29 01:08:00,0.0,1.9070,0.0009,403.62,0.27,105.9,38.2,138.15,27.13,24.60,36.30,0.04,-272.73,-272.73,-51,553,-936,21.7,4.1,-21.9,21.5,4.3,-21.4,5.73,2.33,-26.3,26.6
2012-04-29 01:09:00,0.0,1.9076,0.0008,403.83,0.29,104.7,30.1,138.15,27.13,24.59,36.29,0.04,-272.74,-272.74,-52,553,-936,21.7,4.1,-21.9,21.5,4.3,-21.4,5.73,2.51,-26.3,26.7
2012-04-29 01:10:00,0.0,1.9074,0.0010,403.66,0.27,110.0,37.3,138.15,27.14,24.60,36.30,0.04,-272.73,-272.73,-51,552,-936,21.7,4.1,-21.9,21.5,4.3,-21.5,5.73,2.30,-26.3,26.7
2012-04-29 01:11:00,0.0,1.9067,0.0009,403.47,0.28,102.1,37.1,138.15,27.14,24.60,36.30,0.04,-272.73,-272.74,-52,553,-936,21.7,4.1,-21.8,21.5,4.3,-21.4,5.73,2.50,-26.3,26.7
2012-04-29 01:12:00,0.0,1.9072,0.0008,403.56,0.29,94.4,33.8,138.15,27.14,24.60,36.30,0.04,-272.74,-272.73,-51,553,-936,21.7,4.2,-21.7,21.5,4.4,-21.3,5.73,2.36,-26.3,26.8
2012-04-29 01:13:00,0.0,1.9076,0.0010,403.69,0.29,101.7,35.6,138.15,27.14,24.59,36.30,0.04,-272.73,-272.74,-52,553,-936,21.7,4.2,-21.7,21.5,4.4,-21.3,5.73,2.41,-26.3,26.8
2012-04-29 01:14:00,0.0,1.9075,0.0009,403.74,0.32,95.4,39.1,138.15,27.14,24.59,36.29,0.04,-272.73,-272.73,-51,553,-936,21.7,4.2,-21.7,21.5,4.4,-21.3,5.73,2.46,-26.3,26.8
2012-04-29 01:15:00,0.0,1.9076,0.0010,403.82,0.27,113.7,35.3,138.15,27.15,24.59,36.29,0.04,-272.74,-272.73,-52,553,-936,21.7,4.2,-21.7,21.5,4.4,-21.3,5.73,2.32,-26.3,26.8
2012-04-29 01:16:00,0.0,1.9071,0.0009,403.70,0.27,100.5,36.3,138.15,27.15,24.60,36.30,0.04,-272.74,-272.74,-51,553,-936,21.7,4.2,-21.7,21.5,4.4,-21.3,5.73,2.51,-26.3,26.8
2012-04-29 01:17:00,0.0,1.9074,0.0008,403.48,0.31,94.7,38.1,138.15,27.15,24.60,36.30,0.04,-272.73,-272.74,-52,553,-936,21.7,4.2,-21.6,21.5,4.4,-21.2,5.73,2.31,-26.3,26.8
2012-04-29 01:18:00,0.0,1.9075,0.0008,403.62,0.25,108.7,42.1,138.15,27.15,24.60,36.30,0.04,-272.74,-272.74,-51,553,-936,21.7,4.2,-21.6,21.5,4.4,-21.2,5.73,2.48,-26.3,26.6
2012-04-29 01:19:00,0.0,1.9070,0.0009,403.55,0.28,98.1,37.5,138.15,27.15,24.60,36.29,0.04,-272.74,-272.74,-52,553,-936,21.7,4.2,-21.5,21.5,4.4,-21.1,5.73,2.39,-26.3,26.7
2012-04-29 01:20:00,0.0,1.9066,0.0009,403.51,0.30,100.8,34.5,138.15,27.15,24.60,36.30,0.04,-272.73,-272.74,-52,553,-936,21.7,4.3,-21.4,21.5,4.5,-21.0,5.73,2.36,-26.3,26.6
2012-04-29 01:21:00,0.0,1.9070,0.0010,403.51,0.33,102.4,38.5,138.15,27.15,24.60,36.29,0.04,-272.74,-272.74,-52,553,-936,21.7,4.4,-21.2,21.5,4.6,-20.8,5.73,2.49,-26.3,26.6
2012-04-29 01:22:00,0.0,1.9070,0.0009,403.53,0.30,95.4,29.8,138.15,27.15,24.60,36.30,0.04,-272.74,-272.74,-52,553,-936,21.7,4.3,-21.2,21.5,4.5,-20.8,5.73,2.30,-26.3,26.5
2012-04-29 01:23:00,0.0,1.9074,0.0007,403.40,0.28,100.2,41.0,138.15,27.16,24.59,36.30,0.04,-272.74,-272.74,-52,553,-936,21.7,4.3,-21.3,21.5,4.5,-20.9,5.73,2.51,-26.3,26.5
2012-04-29 01:24:00,0.0,1.9067,0.0008,403.42,0.33,100.9,39.2,138.15,27.16,24.60,36.30,0.04,-272.74,-272.73,-52,553,-936,21.7,4.3,-21.4,21.5,4.5,-20.9,5.73,2.34,-26.4,26.4
2012-04-29 01:25:00,0.0,1.9071,0.0010,403.38,0.26,105.5,34.7,138.15,27.16,24.60,36.30,0.04,-272.74,-272.74,-52,553,-936,21.7,4.3,-21.3,21.5,4.5,-20.9,5.73,2.43,-26.3,26.5
2012-04-29 01:26:00,0.0,1.9073,0.0009,403.48,0.29,110.9,36.7,138.15,27.16,24.60,36.29,0.04,-272.74,-272.74,-52,553,-936,21.7,4.3,-21.4,21.5,4.5,-21.0,5.73,2.44,-26.3,26.5
2012-04-29 01:27:00,0.0,1.9065,0.0009,403.43,0.29,109.2,41.2,138.15,27.16,24.60,36.30,0.04,-272.74,-272.73,-52,553,-936,21.7,4.3,-21.4,21.5,4.5,-21.0,5.73,2.33,-26.3,26.5
2012-04-29 01:28:00,0.0,1.9071,0.0009,403.55,0.26,96.8,38.5,138.15,27.17,24.60,36.29,0.04,-272.74,-272.73,-52,553,-936,21.7,4.3,-21.2,21.5,4.6,-20.8,5.73,2.51,-26.3,26.5
2012-04-29 01:29:00,0.0,1.9068,0.0009,403.59,0.28,112.2,40.1,138.15,27.17,24.60,36.29,0.04,-272.74,-272.74,-52,553,-936,21.7,4.3,-21.2,21.5,4.6,-20.8,5.73,2.31,-26.3,26.4
2012-04-29 01:30:00,0.0,1.9068,0.0009,403.55,0.26,106.1,35.6,138.15,27.17,24.60,36.30,0.04,-272.73,-272.74,-52,553,-936,21.7,4.4,-21.1,21.5,4.6,-20.7,5.73,2.48,-26.3,26.6
2012-04-29 01:31:00,0.0,1.9072,0.0009,403.73,0.26,108.5,34.3,138.15,27.17,24.60,36.29,0.04,-272.75,-272.73,-51,553,-936,21.7,4.4,-21.1,21.5,4.6,-20.7,5.73,2.39,-26.3,26.6
2012-04-29 01:32:00,0.0,1.9067,0.0010,403.57,0.29,108.3,36.3,138.15,27.17,24.60,36.30,0.04,-272.74,-272.74,-52,553,-936,21.7,4.4,-21.2,21.5,4.6,-20.7,5.73,2.38,-26.2,26.5
2012-04-29 01:33:00,0.0,1.9065,0.0009,403.44,0.25,109.2,37.0,138.15,27.18,24.60,36.30,0.04,-272.74,-272.74,-51,553,-936,21.7,4.3,-21.2,21.5,4.6,-20.8,5.73,2.48,-26.2,26.6
2012-04-29 01:34:00,0.0,1.9070,0.0011,403.53,0.24,117.3,30.8,138.15,27.18,24.60,36.30,0.04,-272.73,-272.74,-52,553,-936,21.7,4.4,-21.0,21.5,4.6,-20.6,5.73,2.31,-26.2,26.7
2012-04-29 01:35:00,0.0,1.9068,0.0009,403.61,0.24,117.1,35.6,138.14,27.18,24.60,36.29,0.04,-272.73,-272.74,-51,554,-936,21.7,4.5,-20.9,21.5,4.7,-20.4,5.73,2.51,-26.2,26.7
2012-04-29 01:36:00,0.0,1.9071,0.0008,403.66,0.32,114.1,33.8,138.15,27.18,24.60,36.30,0.04,-272.74,-272.74,-52,554,-936,21.7,4.4,-20.9,21.5,4.6,-20.5,5.73,2.33,-26.2,26.8
2012-04-29 01:37:00,0.0,1.9070,0.0010,403.70,0.26,113.5,36.9,138.15,27.19,24.60,36.29,0.04,-272.74,-272.74,-51,553,-936,21.7,4.4,-21.0,21.5,4.6,-20.6,5.73,2.45,-26.2,26.6
2012-04-29 01:38:00,0.0,1.9070,0.0007,403.64,0.32,116.2,40.2,138.14,27.19,24.60,36.30,0.04,-272.74,-272.74,-52,553,-936,21.7,4.4,-20.9,21.5,4.7,-20.5,5.73,2.42,-26.2,26.7
2012-04-29 01:39:00,0.0,1.9072,0.0010,403.69,0.25,104.1,42.2,138.14,27.19,24.60,36.29,0.04,-272.74,-272.74,-52,553,-936,21.7,4.4,-21.0,21.5,4.6,-20.6,5.73,2.35,-26.2,26.5
2012-04-29 01:40:00,0.0,1.9068,0.0008,403.59,0.28,115.3,34.7,138.14,27.19,24.60,36.30,0.04,-272.74,-272.74,-52,554,-936,21.7,4.4,-21.0,21.5,4.6,-20.6,5.73,2.50,-26.2,26.7
2012-04-29 01:41:00,0.0,1.9071,0.0009,403.61,0.29,112.0,37.1,138.14,27.20,24.60,36.30,0.04,-272.74,-272.73,-52,553,-936,21.7,4.4,-21.0,21.5,4.6,-20.6,5.73,2.31,-26.2,26.8
2012-04-29 01:42:00,0.0,1.9071,0.0009,403.77,0.26,121.2,30.1,138.14,27.20,24.60,36.29,0.04,-272.74,-272.74,-52,554,-936,21.7,4.4,-21.0,21.5,4.6,-20.6,5.73,2.50,-26.2,26.8
2012-04-29 01:43:00,0.0,1.9072,0.0008,403.70,0.30,115.5,32.2,138.14,27.20,24.59,36.29,0.04,-272.74,-272.74,-52,553,-936,21.7,4.4,-21.1,21.5,4.6,-20.7,5.73,2.36,-26.2,26.7
2012-04-29 01:44:00,0.0,1.9072,0.0010,403.71,0.35,124.0,30.9,138.14,27.20,24.60,36.30,0.04,-272.74,-272.73,-52,554,-936,21.7,4.4,-21.1,21.5,4.6,-20.7,5.73,2.39,-26.2,26.7
2012-04-29 01:45:00,0.0,1.9070,0.0009,403.77,0.30,111.9,34.3,138.14,27.20,24.60,36.30,0.04,-272.73,-272.73,-52,554,-936,21.7,4.4,-21.0,21.5,4.6,-20.6,5.73,2.47,-26.2,26.7
2012-04-29 01:46:00,0.0,1.9069,0.0009,403.83,0.28,113.3,39.2,138.14,27.21,24.60,36.30,0.04,-272.74,-272.74,-52,554,-936,21.7,4.4,-21.1,21.5,4.6,-20.7,5.73,2.31,-26.2,26.8
2012-04-29 01:47:00,0.0,1.9071,0.0009,403.76,0.33,110.1,33.0,138.14,27.21,24.60,36.29,0.04,-272.74,-272.73,-52,554,-936,21.7,4.4,-21.0,21.6,4.6,-20.7,5.73,2.51,-26.2,26.9
2012-04-29 01:48:00,0.0,1.9070,0.0009,403.58,0.29,111.4,27.8,138.14,27.21,24.60,36.30,0.04,-272.74,-272.74,-52,554,-936,21.7,4.4,-20.9,21.6,4.6,-20.6,5.73,2.33,-26.2,26.9
2012-04-29 01:49:00,0.0,1.9071,0.0009,403.63,0.29,119.0,37.9,138.14,27.21,24.60,36.29,0.04,-272.73,-272.74,-52,554,-936,21.7,4.4,-21.0,21.6,4.6,-20.6,5.73,2.44,-26.2,26.9
2012-04-29 01:50:00,0.0,1.9069,0.0010,403.69,0.33,114.2,40.1,138.14,27.21,24.60,36.30,0.04,-272.74,-272.73,-51,554,-936,21.7,4.4,-21.0,21.6,4.6,-20.6,5.73,2.43,-26.2,26.8
2012-04-29 01:51:00,0.0,1.9072,0.0010,403.78,0.28,119.6,36.3,138.14,27.22,24.60,36.29,0.04,-272.74,-272.74,-52,554,-936,21.8,4.4,-21.0,21.6,4.6,-20.6,5.73,2.34,-26.2,26.8
2012-04-29 01:52:00,0.0,1.9071,0.0011,403.76,0.27,114.8,38.7,138.14,27.22,24.60,36.30,0.04,-272.74,-272.74,-52,554,-936,21.7,4.4,-21.1,21.6,4.6,-20.6,5.73,2.51,-26.2,26.7
2012-04-29 01:53:00,0.0,1.9069,0.0008,403.75,0.32,121.0,40.5,138.14,27.22,24.60,36.30,0.04,-272.74,-272.74,-52,554,-936,21.8,4.4,-21.1,21.6,4.6,-20.6,5.73,2.31,-26.2,26.6
2012-04-29 01:54:00,0.0,1.9070,0.0011,403.76,0.33,126.1,41.3,138.14,27.23,24.60,36.30,0.04,-272.73,-272.74,-52,554,-936,21.8,4.4,-21.1,21.6,4.6,-20.7,5.73,2.48,-26.2,26.7
2012-04-29 01:55:00,0.0,1.9074,0.0008,403.48,0.30,108.9,33.7,138.14,27.23,24.60,36.30,0.04,-272.73,-272.73,-52,554,-936,21.8,4.4,-21.1,21.6,4.6,-20.7,5.73,2.38,-26.2,26.7
2012-04-29 01:56:00,0.0,1.9075,0.0011,403.55,0.27,115.8,34.4,138.14,27.23,24.60,36.30,0.04,-272.74,-272.74,-52,554,-936,21.8,4.4,-21.1,21.6,4.6,-20.6,5.73,2.38,-26.2,26.8
2012-04-29 01:57:00,0.0,1.9070,0.0009,403.59,0.32,120.8,29.8,138.14,27.23,24.60,36.30,0.04,-272.74,-272.73,-52,554,-936,21.8,4.4,-21.0,21.6,4.6,-20.6,5.73,2.48,-26.2,26.8
2012-04-29 01:58:00,0.0,1.9073,0.0009,403.71,0.29,126.7,33.8,138.14,27.24,24.60,36.30,0.04,-272.74,-272.74,-51,554,-936,21.8,4.4,-20.9,21.6,4.6,-20.5,5.73,2.31,-26.1,26.8
2012-04-29 01:59:00,0.0,1.9069,0.0011,403.78,0.26,118.2,31.2,138.14,27.24,24.60,36.30,0.04,-272.74,-272.74,-52,554,-936,21.8,4.4,-20.9,21.6,4.6,-20.5,5.73,2.50,-26.1,26.7
2012-04-29 02:00:00,0.0,1.9074,0.0010,403.75,0.32,121.2,36.4,138.14,27.24,24.60,36.30,0.26,-270.94,-272.39,-52,554,-936,21.8,4.4,-20.9,21.6,4.6,-20.5,5.42,2.37,-30.4,26.8
2012-04-29 02:01:00,0.0,1.9071,0.0009,403.55,0.30,118.9,35.9,138.14,27.25,24.60,36.31,0.04,-272.74,-272.74,-52,555,-936,21.8,4.5,-20.9,21.6,4.6,-20.5,5.73,2.41,-26.1,26.8
2012-04-29 02:02:00,0.0,1.9072,0.0010,403.73,0.30,120.4,39.4,138.14,27.25,24.60,36.30,0.04,-272.74,-272.74,-52,554,-936,21.8,4.5,-20.9,21.6,4.6,-20.5,5.73,2.46,-26.1,26.7
2012-04-29 02:03:00,0.0,1.9075,0.0011,403.60,0.26,121.9,31.8,138.14,27.25,24.59,36.30,0.04,-272.74,-272.74,-52,555,-936,21.8,4.4,-20.9,21.6,4.6,-20.5,5.73,2.31,-26.1,26.8
2012-04-29 02:04:00,0.0,1.9075,0.0009,403.61,0.27,126.2,34.7,138.14,27.25,24.60,36.30,0.04,-272.73,-272.73,-52,554,-936,21.8,4.4,-21.0,21.6,4.6,-20.6,5.73,2.51,-26.1,26.7
2012-04-29 02:05:00,0.0,1.9069,0.0009,403.65,0.36,116.5,33.3,138.14,27.26,24.60,36.30,0.04,-272.74,-272.73,-52,554,-936,21.8,4.4,-21.0,21.6,4.6,-20.6,5.73,2.33,-26.1,26.8
2012-04-29 02:06:00,0.0,1.9075,0.0010,403.75,0.29,117.2,36.5,138.14,27.26,24.60,36.30,0.04,-272.73,-272.74,-52,554,-936,21.8,4.4,-21.0,21.6,4.6,-20.6,5.73,2.44,-26.1,26.8
2012-04-29 02:07:00,0.0,1.9073,0.0010,403.55,0.31,116.9,37.7,138.14,27.26,24.60,36.30,0.04,-272.73,-272.74,-51,555,-936,21.8,4.4,-21.0,21.6,4.6,-20.6,5.73,2.44,-26.1,26.9
2012-04-29 02:08:00,0.0,1.9070,0.0009,403.52,0.29,124.1,37.1,138.14,27.27,24.60,36.31,0.04,-272.74,-272.74,-52,555,-936,21.8,4.4,-21.0,21.6,4.6,-20.6,5.73,2.33,-26.1,26.8
2012-04-29 02:09:00,0.0,1.9072,0.0009,403.48,0.31,120.6,34.6,138.14,27.27,24.60,36.30,0.04,-272.74,-272.74,-51,555,-936,21.8,4.4,-21.0,21.7,4.6,-20.6,5.73,2.51,-26.1,26.8
2012-04-29 02:10:00,0.0,1.9073,0.0009,403.45,0.26,114.1,35.5,138.14,27.27,24.60,36.30,0.04,-272.73,-272.74,-52,555,-936,21.8,4.4,-21.0,21.6,4.6,-20.6,5.73,2.32,-26.1,26.9
2012-04-29 02:11:00,0.0,1.9069,0.0009,403.44,0.30,121.8,35.6,138.14,27.28,24.60,36.30,0.04,-272.74,-272.74,-52,555,-937,21.8,4.4,-20.9,21.6,4.6,-20.5,5.73,2.44,-26.1,26.8
2012-04-29 02:12:00,0.0,1.9074,0.0010,403.56,0.31,117.8,35.1,138.14,27.28,24.60,36.30,0.04,-272.74,-272.74,-52,555,-938,21.8,4.4,-20.9,21.7,4.6,-20.5,5.73,2.43,-26.1,26.8
2012-04-29 02:13:00,0.0,1.9072,0.0007,403.54,0.31,118.8,33.8,138.14,27.28,24.60,36.30,0.04,-272.74,-272.74,-52,554,-935,21.8,4.4,-21.0,21.6,4.6,-20.5,5.73,2.34,-26.1,26.9
2012-04-29 02:14:00,0.0,1.9074,0.0008,403.64,0.31,119.9,31.9,138.14,27.28,24.60,36.30,0.04,-272.73,-272.73,-51,554,-932,21.8,4.4,-20.9,21.7,4.6,-20.5,5.73,2.51,-26.1,26.9
2012-04-29 02:15:00,0.0,1.9070,0.0010,403.57,0.27,121.6,33.3,138.14,27.29,24.60,36.30,0.04,-272.74,-272.74,-53,554,-941,21.8,4.4,-20.9,21.7,4.6,-20.5,5.73,2.31,-26.1,27.0
2012-04-29 02:16:00,0.0,1.9073,0.0009,403.49,0.31,118.3,35.2,138.14,27.29,24.60,36.30,0.04,-272.74,-272.74,-53,555,-936,21.8,4.4,-20.9,21.7,4.6,-20.5,5.73,2.46,-26.1,27.0
2012-04-29 02:17:00,0.0,1.9072,0.0010,403.36,0.33,117.2,34.2,138.14,27.29,24.60,36.31,0.04,-272.74,-272.74,-45,554,-934,21.8,4.4,-20.9,21.7,4.6,-20.5,5.73,2.41,-26.1,27.0